Home > Time Zones > World Clock > Weather > Iran > Gorgan > Past weeks

Flag for Iran Weather past 2 weeks in Gorgan, Iran

Now
57 °F

Sunny.


Feels Like: 55 °F
Forecast: 39 / 56 °F
Wind: 12 mph from East

Location: Gorgan Airport

Current Time: Dec 22, 2014 at 12:21:48 PM

Latest Report: Dec 22, 2014 at 11:30 AM


Visibility: 4 mi

Pressure: 29.95 "Hg

Humidity: 67%

Dew point: 46 °F

Location of GorganLocation

Historic Weather in Gorgan — Graph

°F

Gorgan temperature yesterday

Maximum temperature yesterday: 52 °F (at 11:30 AM)
Minimum temperature yesterday: 41 °F (at 11:30 PM)
Average temperature yesterday: 48 °F

Past Weeks' High & Low Weather Summary

 TemperatureHumidityPressure
High68 °F (Dec 12, 1:30 PM)100% (Dec 7, 8:30 PM)30.72 "Hg (Dec 7, 8:30 PM)
Low32 °F (Dec 8, 5:30 AM)43% (Dec 12, 2:30 PM)29.98 "Hg (Dec 22, 10:30 AM)
Average48 °F85%30.27 "Hg
* Reported Dec 7 10:30 AM — Dec 22 10:30 AM, Gorgan, Weather by CustomWeather, © 2014

Note: Actual official high and low records may vary slightly from our data, if they occured in-between our weather recording intervals... More about our weather records

Advertising

Gorgan weather history for previous 24 hours

 ConditionsComfort  
Time TempWeatherWind HumidityBarometerVisibility
10:30 AM
Dec 22
52 °FSunny.9 mph77%29.98 "Hg4 mi
9:30 AM45 °FSunny.5 mph87%30.01 "Hg4 mi
8:30 AM39 °FSunny.7 mph93%30.01 "Hg10 mi
7:30 AM36 °FClear.7 mph93%30.01 "Hg10 mi
6:30 AM36 °FClear.5 mph93%30.04 "Hg10 mi
5:30 AM37 °FClear.7 mph93%30.04 "Hg10 mi
4:30 AM37 °FClear.7 mph93%30.04 "Hg10 mi
3:30 AM37 °FClear.7 mph93%30.07 "Hg10 mi
2:30 AM37 °FClear.5 mph100%30.07 "Hg4 mi
1:30 AM39 °FFog.No wind93%30.09 "Hg1 mi
12:30 AM39 °FFog.No wind93%30.09 "Hg1 mi
11:30 PM
Dec 21
41 °FFog.5 mph93%30.12 "Hg1 mi
10:30 PM43 °FFog.No wind93%30.12 "Hg0 mi
9:30 PM45 °FFog.5 mph93%30.15 "Hg3 mi
8:30 PM46 °FFog.No wind93%30.15 "Hg2 mi
7:30 PM48 °FFog.5 mph94%30.15 "Hg2 mi
6:30 PM50 °FMostly cloudy.7 mph88%30.15 "Hg4 mi
5:30 PM50 °FLight rain. Mostly cloudy.5 mph94%30.12 "Hg4 mi
4:30 PM52 °FFog.No wind88%30.12 "Hg2 mi
3:30 PM52 °FFog.No wind88%30.12 "Hg2 mi
2:30 PM52 °FFog.5 mph88%30.09 "Hg2 mi
1:30 PM52 °FFog.No wind88%30.09 "Hg2 mi
12:30 PM52 °FFog.No wind88%30.09 "Hg2 mi
Weather by CustomWeather, © 2014

See weather overviewHow to use our weather pages